User: anonymous   Login
Location: Proctor
(47.8934°N, 114.3048°W)
Time: 10:47:58
(UTC+00:00)
Language:

Transit 4A - Orbit

View from above orbital plane
View from above orbital plane
View from above satellite
View from above satellite

Ground track
Ground track

The orbit data is extracted from the following two-line orbital elements,

1 00116U 61015A   24176.49851879  .00000009  00000-0  65640-4 0  9996
2 00116  66.8084 218.8798 0069302  56.8317 303.9385 13.92052588196106
Epoch (UTC): 24 June 2024 11:57:52
Eccentricity: 0.0069302
inclination: 66.8084°
perigee height: 871 km
apogee height: 972 km
right ascension of ascending node: 218.8798°
argument of perigee: 56.8317°
revolutions per day: 13.92052588
mean anomaly at epoch: 303.9385°
orbit number at epoch: 19610

The dashed part of the orbit path shows where the satellite is in the earth's shadow,  

DLR